Theta_e
319 312 312 307 297 293 289 292 294 296 296 298 300 298 296 298 297 293 313 321 332 337 344 348 351 354 354 353 352 352 351 349 349 348 347 347 346 345 347 348 349 347 344 341 341 340 337 335 335
313 315 308 300 292 287 289 293 295 297 299 299 299 298 297 296 305 310 315 321 336 338 343 346 348 352 353 352 352 351 351 350 348 348 348 347 347 348 348 348 348 345 343 339 338 335 334 332 332
313 312 301 295 289 287 289 292 293 297 298 298 297 299 301 300 306 311 316 324 336 338 343 346 347 352 352 352 351 351 351 351 350 349 349 347 345 344 347 345 347 343 338 338 335 332 330 328 327
308 305 299 291 289 292 291 293 295 296 297 298 297 298 299 304 306 314 321 326 334 337 342 344 348 352 352 351 351 351 350 350 350 350 347 345 343 341 339 342 342 339 335 334 332 329 326 323 322
304 298 291 289 289 292 295 296 296 296 296 297 298 296 296 306 313 317 321 322 332 334 338 342 347 350 351 350 350 350 350 349 349 349 348 346 342 339 338 337 337 335 335 332 330 326 323 319 318
299 294 288 287 289 293 295 297 296 295 295 296 297 296 297 306 309 315 320 319 324 333 336 342 340 343 347 348 348 348 349 349 349 348 347 346 341 335 334 334 335 336 334 331 328 323 320 317 315
296 292 288 288 289 292 295 297 294 294 293 295 297 294 298 301 307 313 319 320 319 329 335 339 342 341 339 342 343 345 347 348 348 347 347 344 339 338 335 333 333 334 333 330 326 322 319 316 313
298 294 290 289 289 291 296 297 296 295 295 299 300 293 296 303 307 310 315 318 318 322 333 335 338 340 342 342 337 338 341 342 344 343 341 335 334 335 333 330 332 334 331 329 325 321 319 316 311
299 290 287 289 290 291 297 295 298 297 295 296 299 297 299 304 307 308 309 311 314 319 325 331 336 337 338 339 337 334 336 337 337 336 332 328 328 328 326 326 329 331 330 328 324 321 319 314 308
294 288 290 294 293 294 296 295 296 295 295 295 295 299 301 304 306 306 306 308 310 314 318 326 331 334 335 340 336 335 338 338 334 332 328 326 324 323 323 322 326 329 327 328 324 321 317 306 294
296 291 295 297 298 297 297 296 296 294 294 296 298 297 299 302 303 304 304 306 308 311 316 322 328 331 332 335 334 333 332 329 328 327 324 324 325 322 318 317 318 317 319 317 318 313 304 298 296
293 299 298 300 300 298 295 298 297 297 299 300 300 300 298 299 299 299 301 302 304 308 313 319 324 328 329 332 331 333 333 330 328 328 326 326 324 321 318 313 312 312 311 309 306 304 301 296 295
293 295 298 299 298 297 297 296 295 297 300 300 300 299 298 296 296 296 297 299 299 301 304 313 321 326 328 328 328 330 331 331 328 325 325 326 324 320 316 311 310 309 307 305 303 302 297 294 294
295 295 296 297 298 297 295 293 295 298 296 299 298 296 295 296 296 296 297 298 298 299 299 304 317 324 326 327 324 327 328 328 326 325 325 323 324 321 316 310 309 307 306 304 302 300 294 293 293
296 293 294 295 295 294 295 292 293 298 296 296 296 293 295 295 295 294 296 296 297 298 299 300 312 321 323 325 323 322 324 324 324 324 321 320 320 318 316 312 309 308 305 303 300 297 293 292 292
291 289 287 293 294 294 293 288 295 297 294 295 294 291 293 294 294 294 295 295 296 296 297 300 306 315 318 319 320 320 320 319 320 320 319 319 318 315 313 312 311 307 305 302 298 294 292 291 290
287 283 285 290 294 293 291 288 294 297 294 293 292 291 292 293 294 294 294 294 294 295 296 298 300 307 314 316 317 318 317 317 317 318 318 319 319 315 314 311 311 309 304 299 297 292 292 290 289
284 284 286 287 292 291 290 289 293 295 294 292 289 289 291 292 292 294 293 294 294 294 295 296 298 299 305 311 312 312 313 313 314 318 319 319 318 315 313 311 309 306 303 296 294 292 290 290 289
287 285 285 288 292 289 289 289 293 293 293 290 289 290 291 291 293 293 292 292 292 292 293 294 294 295 299 301 304 307 307 309 310 315 317 317 316 312 310 308 306 303 302 299 296 291 290 289 288
288 286 286 289 291 289 288 289 289 290 289 289 289 289 290 289 290 291 290 290 290 290 291 292 293 293 295 297 298 300 300 300 305 306 310 311 313 312 309 306 304 301 297 294 292 291 289 289 288
288 287 286 288 288 288 285 284 286 289 290 290 290 290 289 288 288 289 289 288 288 288 289 291 291 292 292 294 295 296 296 296 296 297 299 303 306 307 308 305 302 300 298 296 294 291 290 289 287
286 290 289 287 284 280 284 277 284 286 286 287 287 286 287 287 288 288 288 287 287 287 287 289 290 291 292 292 292 291 290 290 291 292 293 295 297 298 300 302 301 299 297 295 294 293 292 289 287
288 289 287 285 283 280 281 278 282 286 284 285 285 287 287 287 287 287 287 288 287 287 286 286 288 289 289 290 290 289 288 289 289 290 290 291 292 292 292 293 295 298 297 295 294 292 291 291 290
290 287 286 283 281 276 281 281 281 284 285 285 286 287 287 287 286 287 287 287 285 285 285 285 286 287 288 287 287 287 287 287 287 287 287 288 289 290 289 290 290 291 292 293 294 292 291 291 291
287 284 279 276 275 276 283 280 283 286 287 287 286 286 286 286 285 285 285 285 284 284 283 285 284 284 286 286 286 285 285 285 285 285 285 285 286 286 287 288 287 288 289 290 290 289 290 289 287
285 284 277 269 273 276 283 280 284 286 288 288 287 286 286 286 286 285 284 284 284 284 283 283 283 283 284 284 284 284 284 284 284 284 284 284 284 285 286 286 286 286 287 288 288 288 287 287 287
286 283 287 281 280 278 280 281 286 286 285 285 285 285 284 285 286 285 284 283 284 284 284 284 282 283 283 284 284 284 284 282 282 282 283 283 284 285 285 284 284 285 285 285 285 285 285 285 285
288 290 281 281 268 272 276 278 279 283 283 284 283 283 284 285 286 286 285 285 285 284 285 284 284 283 282 282 283 284 283 284 283 283 282 282 283 284 284 283 284 283 283 283 283 283 284 284 285
284 284 284 284 281 271 269 276 285 286 286 284 283 284 283 284 284 285 284 283 282 283 283 284 283 283 283 283 283 283 283 282 282 282 282 282 282 282 282 283 282 282 282 282 282 281 281 282 283
286 285 285 281 277 278 278 279 288 288 287 286 285 285 284 284 282 281 282 281 280 280 280 280 281 281 282 281 281 281 281 280 280 280 280 280 281 281 280 280 281 281 281 281 281 281 281 281 281
Wind_Speed
6 6 2 5 6 6 2 2 1 1 1 2 1 3 2 2 3 5 4 7 7 10 12 13 15 14 12 15 15 14 14 13 12 12 11 10 9 8 9 8 8 11 10 6 7 8 7 7 8
4 2 5 3 7 4 4 4 1 2 3 2 1 2 1 1 2 2 4 8 9 11 11 10 12 13 11 13 13 13 14 14 13 13 13 12 9 7 10 10 10 10 9 4 5 7 7 6 7
4 2 4 5 4 4 4 3 3 2 2 1 1 0 1 2 2 6 6 9 8 9 11 11 11 12 12 13 14 13 13 15 13 13 13 12 9 7 9 7 9 8 5 5 5 5 5 5 5
4 5 5 6 1 4 5 5 3 3 1 1 2 2 3 0 3 6 7 9 9 7 9 12 16 16 14 12 12 13 12 13 13 13 13 12 11 8 4 3 3 5 5 4 4 4 4 4 3
5 4 5 3 4 4 1 3 2 2 1 2 0 1 3 4 3 3 6 7 11 8 8 10 16 17 17 16 15 13 10 12 14 15 13 12 12 8 6 5 7 5 4 4 4 3 3 3 3
5 4 5 0 4 5 3 3 3 2 2 2 2 4 3 2 1 4 4 6 6 8 7 10 13 12 14 15 15 14 13 10 11 13 13 15 12 10 6 4 5 5 5 5 4 3 3 3 4
6 4 4 3 3 4 3 1 3 2 1 1 3 1 3 4 8 6 7 5 6 6 7 6 9 11 12 12 12 12 12 11 12 13 13 13 13 13 11 7 7 7 7 7 5 4 4 4 4
5 5 1 3 3 2 7 8 0 1 3 1 5 3 5 4 4 4 4 4 4 6 6 7 7 9 10 10 13 12 12 11 11 10 11 12 13 13 12 10 8 8 9 8 7 6 5 4 3
3 5 1 3 2 3 5 6 6 3 2 3 3 3 4 1 5 2 3 2 4 4 7 7 9 9 8 8 9 14 14 11 11 9 10 10 5 7 9 9 8 11 9 9 8 7 6 4 2
5 4 7 3 4 2 3 2 5 4 6 6 4 6 0 3 4 6 6 8 7 7 7 8 8 10 8 7 7 8 7 7 6 6 7 5 5 5 6 8 10 9 9 10 10 8 6 4 1
4 5 4 4 4 3 3 5 3 3 6 7 11 5 4 4 7 8 9 9 10 6 3 10 10 9 10 8 5 4 3 3 3 6 6 5 4 3 3 3 3 3 6 3 5 5 3 3 2
2 6 5 5 2 4 2 4 7 5 11 5 8 8 5 8 7 8 10 9 7 8 10 9 11 11 11 7 6 6 5 4 4 6 8 6 4 4 4 2 3 4 3 5 4 3 4 3 3
3 3 4 5 10 6 2 7 6 11 14 8 9 8 6 6 8 8 7 9 9 7 7 9 7 11 10 9 6 7 8 7 6 6 7 6 6 5 5 4 3 4 3 4 4 4 4 4 4
1 3 6 7 9 5 4 3 4 9 1 10 8 9 10 12 10 9 15 12 12 11 10 8 10 9 8 9 8 7 6 7 6 6 7 7 5 5 5 4 4 4 4 4 4 4 4 4 3
2 5 8 7 2 4 5 3 7 12 3 10 8 9 10 10 11 11 9 9 12 11 13 12 7 7 9 10 7 5 5 5 6 6 6 6 5 6 7 6 4 4 4 5 3 2 2 2 2
2 3 3 4 1 1 5 9 8 10 6 10 8 8 9 12 12 11 10 10 11 12 15 14 10 2 3 5 5 4 4 4 4 4 4 6 7 6 6 6 7 5 4 4 4 3 2 2 2
4 3 5 9 1 1 3 7 9 11 4 9 7 7 9 10 13 13 13 12 12 11 13 15 14 11 6 5 4 4 3 2 2 2 3 5 6 7 7 5 5 6 5 4 4 2 3 3 1
5 4 4 6 5 4 6 9 12 12 9 2 9 8 9 11 11 10 12 12 12 12 13 14 13 15 9 5 5 4 4 3 2 2 2 4 4 5 5 3 6 6 4 4 4 4 2 3 4
2 3 6 6 7 2 7 7 15 7 8 4 8 8 10 11 8 10 11 11 13 16 16 16 17 16 12 6 4 4 3 3 4 4 2 3 3 4 4 3 3 5 6 8 7 3 5 2 4
4 4 7 8 4 1 5 13 5 9 6 7 8 8 9 8 10 11 12 13 14 13 14 16 16 16 12 8 4 4 3 4 4 6 8 8 4 1 3 4 4 3 3 4 5 4 2 2 4
5 5 4 8 5 3 4 8 2 5 8 11 11 10 11 9 9 9 11 11 12 14 13 14 14 14 13 11 7 6 5 5 8 10 9 10 10 8 5 4 1 3 2 3 5 5 6 5 4
5 5 5 3 2 4 3 6 6 3 6 8 8 7 7 7 6 6 7 10 12 10 10 12 13 14 13 13 10 12 8 6 4 5 5 8 12 12 12 10 6 2 1 3 4 3 3 3 5
7 2 1 0 2 2 4 1 9 8 3 4 5 6 6 6 5 7 8 7 9 10 10 10 12 15 13 14 12 8 9 4 3 6 10 11 10 11 12 10 8 7 4 3 4 3 5 4 3
3 4 6 4 4 1 7 7 6 5 7 7 5 6 6 5 6 6 6 6 7 7 10 11 13 14 13 13 13 13 11 9 8 8 7 6 6 8 12 10 8 7 6 5 4 4 5 5 6
4 6 3 5 3 6 3 3 7 7 1 14 13 8 6 6 6 6 7 6 7 8 8 9 10 13 11 13 13 13 12 11 11 10 7 8 6 5 9 9 9 7 6 6 5 5 5 5 4
5 8 6 6 3 4 6 6 4 4 7 8 8 8 7 6 5 6 6 6 6 7 7 7 8 9 9 9 10 9 9 6 6 7 7 7 7 7 7 9 8 7 7 8 6 3 3 5 5
4 4 3 5 2 2 5 1 2 4 5 5 6 6 6 6 6 7 7 6 7 6 6 8 7 7 7 7 6 7 6 7 6 7 5 5 6 8 10 9 9 10 9 8 6 3 5 4 5
4 6 4 2 1 6 6 5 6 9 9 7 8 8 7 7 7 5 5 5 5 6 5 6 6 6 6 6 5 4 4 4 2 3 5 5 5 6 8 10 10 10 10 8 7 6 6 5 4
1 3 2 4 6 6 3 6 3 9 13 13 8 8 9 8 7 6 5 6 6 5 5 4 5 5 5 4 3 4 5 5 6 5 4 5 5 5 6 6 6 7 7 9 9 8 7 7 8
3 7 7 7 6 5 3 9 1 7 10 10 11 12 7 5 7 7 7 6 5 5 4 2 1 2 1 1 4 6 6 6 7 6 7 7 8 9 8 8 9 7 6 6 7 9 9 11 11
Wind_Direction
323 322 85 42 57 64 303 266 139 63 18 225 198 116 178 206 162 212 290 179 144 151 169 175 175 174 172 149 142 143 145 155 154 148 144 138 144 147 141 152 146 118 95 105 99 106 102 96 92
341 356 41 82 82 70 283 276 122 212 211 190 36 82 36 168 205 171 111 191 165 155 165 178 176 173 163 151 150 154 159 163 164 164 159 147 136 131 165 152 121 114 111 115 111 109 109 104 98
330 43 78 89 107 161 179 239 199 292 215 142 56 156 197 227 337 183 236 149 144 159 166 171 172 175 169 161 161 170 181 168 167 177 163 142 143 138 132 149 131 118 126 133 132 118 102 90 87
21 11 30 79 208 247 174 207 224 141 319 4 137 337 305 185 184 199 149 142 146 159 170 170 171 175 175 174 176 182 189 168 172 167 161 158 161 159 151 187 153 186 176 179 149 125 101 82 70
36 56 51 46 286 281 267 190 141 57 249 251 200 263 267 348 13 113 159 147 159 164 170 173 176 177 178 179 180 183 189 175 174 171 170 171 164 166 209 217 206 200 174 191 153 128 100 78 62
41 94 60 193 281 290 304 280 98 54 26 330 358 318 282 327 200 193 193 174 169 167 172 175 180 178 180 184 183 183 187 191 186 178 173 175 151 146 168 198 212 193 177 190 162 145 118 94 70
102 76 186 212 248 314 239 299 121 177 119 209 186 278 283 255 230 190 197 184 168 171 163 176 184 185 178 182 185 185 190 189 185 184 189 193 151 161 169 187 218 200 187 193 172 160 145 116 92
101 92 15 278 307 324 337 326 190 306 298 339 157 232 276 268 175 171 198 213 195 176 181 177 181 189 191 189 185 188 192 193 194 197 202 171 167 169 161 165 216 195 196 192 178 175 164 143 119
83 60 225 244 29 296 328 7 320 299 349 338 274 175 242 136 115 152 177 218 233 227 197 183 184 187 190 192 199 188 191 197 200 202 184 170 164 166 158 160 202 205 199 193 185 183 168 143 115
89 117 225 204 165 273 274 272 312 339 352 283 262 295 161 134 161 199 225 226 217 219 214 195 189 190 186 195 193 200 193 197 184 178 174 160 161 165 160 162 185 186 191 182 188 187 158 113 99
161 193 224 249 209 200 249 281 211 332 299 242 279 264 281 194 229 231 242 229 226 235 211 200 194 190 186 196 191 191 191 168 170 174 166 159 159 159 150 157 178 176 175 164 177 171 138 175 171
158 250 231 273 298 319 275 305 312 201 247 228 271 274 258 271 255 265 274 271 249 231 225 210 196 189 192 184 182 191 192 176 181 185 175 168 162 156 152 182 188 174 164 161 155 158 176 218 222
204 277 278 277 282 253 232 240 241 266 263 294 284 305 336 358 4 19 352 354 330 287 285 253 211 196 196 189 183 177 186 193 184 173 182 179 167 170 158 179 183 181 168 167 170 176 191 205 192
173 274 267 270 265 267 252 283 140 274 343 312 315 31 47 53 27 15 12 5 359 337 329 263 202 216 184 193 181 187 179 178 170 182 194 208 164 157 166 172 187 186 180 173 173 181 197 215 207
329 317 318 272 271 238 169 317 225 253 333 289 296 69 61 45 35 30 6 359 351 342 333 343 250 185 186 188 176 173 178 171 183 188 182 194 172 170 167 167 183 189 180 169 165 185 177 206 252
336 37 327 276 2 87 134 260 276 279 286 273 1 78 60 41 32 18 11 9 2 359 358 356 352 157 198 176 151 147 155 162 166 173 181 185 183 170 163 176 177 186 167 167 164 165 199 234 227
348 223 215 306 251 93 194 254 269 291 310 305 29 74 63 45 32 19 9 4 6 8 8 17 21 15 54 61 63 78 104 136 173 166 186 193 189 174 172 171 177 173 170 167 168 157 159 185 232
217 218 243 243 271 40 268 250 258 276 295 34 111 86 72 60 37 18 14 11 12 14 22 23 27 26 15 53 65 49 56 45 79 199 210 188 180 185 175 182 162 155 165 160 166 164 158 168 178
171 215 243 264 259 244 271 279 293 309 261 54 95 84 74 61 41 30 25 25 26 24 23 26 30 19 29 14 11 26 28 7 22 1 4 192 161 168 170 162 158 156 182 191 188 141 185 185 146
226 238 259 272 265 208 314 293 29 18 26 65 95 86 78 67 45 34 27 27 31 33 29 29 29 29 29 30 8 35 22 28 22 15 31 16 0 117 173 188 188 187 151 174 176 165 148 190 186
226 200 240 237 339 282 345 296 132 62 71 68 57 66 60 57 50 29 31 27 33 34 29 35 36 35 31 24 31 29 32 24 19 16 20 16 16 12 10 350 40 171 177 210 203 183 181 195 210
274 204 220 210 93 240 46 283 314 149 83 69 73 69 73 69 59 51 37 38 37 25 22 32 39 40 36 30 44 54 59 53 0 358 359 22 27 28 21 12 9 18 309 261 232 232 236 140 200
226 128 104 137 180 42 307 102 266 116 129 113 93 97 97 87 77 62 46 35 39 33 31 30 36 41 34 38 42 50 57 42 23 26 24 16 16 27 23 18 10 5 354 302 270 248 219 211 200
114 38 32 54 117 286 223 167 275 191 185 147 154 130 115 99 78 72 59 47 45 33 41 39 40 38 35 38 36 43 42 36 36 28 34 22 13 12 14 8 9 3 359 341 310 286 271 251 251
94 68 311 340 358 231 128 127 247 322 164 154 150 144 134 124 112 91 70 53 50 48 40 50 45 43 35 43 42 35 33 33 34 21 12 14 17 14 5 5 0 359 352 351 341 318 290 263 247
169 159 160 218 223 278 322 245 289 7 64 105 126 139 141 133 115 103 98 88 73 63 65 65 53 53 44 44 46 39 38 40 34 28 23 13 6 2 358 1 359 354 -0 359 355 349 309 295 276
179 174 162 111 10 268 237 335 189 86 79 115 142 142 151 154 152 140 131 121 112 96 74 66 60 56 46 48 47 46 43 29 23 16 16 17 8 1 357 359 358 353 352 355 352 343 324 322 280
149 162 81 22 172 251 286 259 217 194 185 184 175 178 177 179 171 153 127 115 95 85 77 65 62 61 46 50 47 51 54 49 30 26 358 1 347 347 353 351 345 345 346 345 348 338 323 312 285
150 199 112 146 161 179 239 258 253 176 187 187 193 197 197 194 170 147 126 103 98 91 81 78 61 53 44 41 41 30 22 9 359 1 335 354 349 343 334 324 309 312 324 328 332 330 312 317 307
192 199 171 197 218 235 185 257 8 178 162 169 198 208 207 172 157 144 144 137 138 143 129 128 122 59 269 329 14 8 352 342 341 342 340 342 333 330 330 328 319 306 290 284 292 304 313 313 307